565  
ASUS44 KSHV 281610  
RWRSHV  
 
WEATHER ROUNDUP FOR THE FOUR STATE AREA  
NATIONAL WEATHER SERVICE SHREVEPORT LA  
1100 AM CDT SUN MAY 28 2017  
 
NOTE: "FAIR" INDICATES FEW OR NO CLOUDS BELOW 12000 FEET  
WITH NO SIGNIFICANT WEATHER AND/OR S TO VISIBILITY
.  
 
!LAZ001-LAZ014-TXZ097-281700  
SHREVEPORT...MONROE...TEXARKANA RADIOS  
 
CITY SKY/WX TMP DP RH WIND PRES REMARKS
 
SHREVEPORT CLOUDY 71 69 93 S7 29.99R THUNDER  
MONROE PTSUNNY 74 64 71 SE9G22 29.98F  
NATCHITOCHES CLOUDY 82 66 58 SE12G18 30.01R  
TEXARKANA CLOUDY 69 67 93 S7 29.97S  

 
 
!LAZ001-LAZ014-TXZ097-281700  
OTHER LOCATIONS...  
 
CITY SKY/WX TMP DP RH WIND PRES REMARKS
 
DOWNTOWN SHV CLOUDY 71 68 90 SE5 29.97F  
BOSSIER CITY PTSUNNY 68 68 100 SE7 29.97F THUNDER  
RUSTON CLOUDY 70 64 80 SE6 30.02R  
LITTLE ROCK CLOUDY 71 67 87 W13G21 29.93R  
EL DORADO CLOUDY 67 65 93 S12 29.98R FOG  
JACKSON TSTM 68 65 90 E13 30.05F  
NEW ORLEANS CLOUDY 84 73 69 S3 30.04F  
HOUSTON PTSUNNY 86 75 69 SE6 29.97F  
LUFKIN SUNNY 82 68 62 E14 29.98S  
TYLER SUNNY 77 65 66 SE12G23 29.96F  
DAL FT WORTH LGT RAIN 73 72 96 NE9 29.96R FOG  

 
 
!TXZ136-TXZ165-281700  
TYLER...LUFKIN RADIOS  
 
CITY SKY/WX TMP DP RH WIND PRES REMARKS
 
TYLER SUNNY 77 65 66 SE12G23 29.96F  
GILMER PTSUNNY 71 65 81 SE10 29.96F THUNDER  
LONGVIEW CLOUDY 76 68 76 SE17G25 29.96F  
LUFKIN SUNNY 82 68 62 E14 29.98S  

 
 
!TXZ136-TXZ165-281700  
OTHER LOCATIONS...  
 
CITY SKY/WX TMP DP RH WIND PRES REMARKS
 
NACOGDOCHES SUNNY 79 64 61 SE14G21 29.97S  
BEAUMONT PTSUNNY 86 74 67 S5 29.98S  
HOUSTON PTSUNNY 86 75 69 SE6 29.97F  
COLLEGE STN CLOUDY 84 75 74 SE14 29.94F  
AUSTIN CLOUDY 86 74 67 SE8 29.91S  
DAL FT WORTH LGT RAIN 73 72 96 NE9 29.96R FOG  
TEXARKANA CLOUDY 69 67 93 S7 29.97S  
SHREVEPORT CLOUDY 71 69 93 S7 29.99R THUNDER  
FORT POLK CLOUDY 82 68 62 NE7 30.02R  
LAKE CHARLES MOSUNNY 87 76 69 SE10 29.99F  

 
 
 
CLICK HERE TO GO TO PREVIOUS BULLETINS.

The Nexlab LA Page
The Nexlab TX Page
The Nexlab AR Page
The Nexlab OK Page Main Text Page